User: anonymous   Login
Location: Champaign/Urbana Astronomical Society Observatory
(40.0333°N, 88.2833°W)
Time: 15:24:15
(UTC-05:00)
Language:

First-Move - Orbit

View from above orbital plane
View from above orbital plane
View from above satellite
View from above satellite

Ground track
Ground track

The orbit data is extracted from the following two-line orbital elements,

1 39439U 13066Z   19139.98560071  .00000396  00000-0  54575-4 0  9991
2 39439  97.5717 154.9332 0066759 131.2701 229.4289 14.81807409296545
Epoch (UTC): 19 May 2019 23:39:15
Eccentricity: 0.0066759
inclination: 97.5717°
perigee height: 577 km
apogee height: 670 km
right ascension of ascending node: 154.9332°
argument of perigee: 131.2701°
revolutions per day: 14.81807409
mean anomaly at epoch: 229.4289°
orbit number at epoch: 29654

The dashed part of the orbit path shows where the satellite is in the earth's shadow,  

DLR